SESAM ESGG-ESGT

Flight info

Callsign SESAM
Flight time N/A
Altitude
Route
Aircraft BE58

Departure

Time 2026-05-06 19:14
Airport Göteborg Landvetter Airport (ESGG)

Arrival

Time N/A
Airport Trollhättan-Vänersborg Airport (ESGT)
Time Latitude Longitude Altitude Speed Heading
2026-05-06 18:57 58.16303 12.27428 2899 ft 148 kts 15°
2026-05-06 18:57 58.17294 12.27997 2866 ft 150 kts 13°
2026-05-06 18:57 58.18292 12.28581 2795 ft 149 kts 20°
2026-05-06 18:57 58.19191 12.29452 2794 ft 143 kts 28°
2026-05-06 18:58 58.20028 12.30449 2695 ft 142 kts 33°
2026-05-06 18:58 58.20819 12.31592 2568 ft 144 kts 37°
2026-05-06 18:58 58.21570 12.32824 2430 ft 144 kts 40°
2026-05-06 18:58 58.22328 12.34084 2223 ft 146 kts 38°
2026-05-06 18:59 58.23083 12.35368 2054 ft 144 kts 38°
2026-05-06 18:59 58.23830 12.36613 1878 ft 141 kts 37°
2026-05-06 18:59 58.24595 12.37788 1630 ft 141 kts 34°
2026-05-06 18:59 58.25383 12.38785 1437 ft 133 kts 26°
2026-05-06 19:00 58.26235 12.39465 1274 ft 129 kts 12°
2026-05-06 19:00 58.27122 12.39609 1069 ft 127 kts 352°
2026-05-06 19:00 58.27910 12.39229 957 ft 106 kts 335°
2026-05-06 19:00 58.28544 12.38599 756 ft 100 kts 326°
2026-05-06 19:01 58.29139 12.37882 661 ft 103 kts 324°
2026-05-06 19:01 58.29747 12.37111 557 ft 104 kts 323°
2026-05-06 19:01 58.30327 12.36313 411 ft 105 kts 324°
2026-05-06 19:01 58.30936 12.35563 237 ft 104 kts 325°
2026-05-06 19:02 58.31510 12.34824 140 ft 94 kts 323°
2026-05-06 19:02 58.32064 12.34121 173 ft 104 kts 327°
2026-05-06 19:02 58.32739 12.33224 324 ft 127 kts 306°
2026-05-06 19:02 58.32791 12.31647 555 ft 133 kts 239°
2026-05-06 19:03 58.31967 12.30930 761 ft 145 kts 175°
2026-05-06 19:03 58.31044 12.31761 884 ft 154 kts 148°
2026-05-06 19:03 58.30154 12.32933 897 ft 157 kts 145°
2026-05-06 19:03 58.29287 12.34186 895 ft 155 kts 138°
2026-05-06 19:04 58.28980 12.35894 797 ft 130 kts 66°
2026-05-06 19:04 58.29633 12.36503 581 ft 107 kts 352°
2026-05-06 19:04 58.30338 12.36254 353 ft 100 kts 332°
2026-05-06 19:04 58.30937 12.35563 216 ft 102 kts 322°
2026-05-06 19:05 58.31517 12.34820 139 ft 95 kts 323°
2026-05-06 19:05 58.32104 12.34053 184 ft 111 kts 326°
2026-05-06 19:05 58.32749 12.33122 336 ft 116 kts 299°
2026-05-06 19:05 58.32642 12.31710 505 ft 121 kts 223°
2026-05-06 19:06 58.31818 12.31648 622 ft 136 kts 158°
2026-05-06 19:06 58.30995 12.32252 754 ft 138 kts 166°
2026-05-06 19:06 58.30057 12.32631 920 ft 140 kts 172°
2026-05-06 19:06 58.29085 12.32931 1145 ft 142 kts 175°
2026-05-06 19:07 58.28096 12.33176 1389 ft 143 kts 174°
2026-05-06 19:07 58.27117 12.33413 1654 ft 142 kts 180°
2026-05-06 19:07 58.26143 12.33284 1987 ft 135 kts 188°
2026-05-06 19:07 58.25217 12.33141 2370 ft 131 kts 186°
2026-05-06 19:08 58.24298 12.33080 2675 ft 134 kts 184°
2026-05-06 19:08 58.23356 12.33084 2950 ft 136 kts 183°
2026-05-06 19:08 58.22393 12.33086 2976 ft 141 kts 182°
2026-05-06 19:08 58.21427 12.33158 2988 ft 137 kts 179°
2026-05-06 19:09 58.20496 12.33303 2953 ft 134 kts 177°
2026-05-06 19:09 58.19567 12.33501 2859 ft 135 kts 175°
2026-05-06 19:09 58.18629 12.33797 2750 ft 139 kts 173°
2026-05-06 19:09 58.17666 12.34141 2714 ft 138 kts 172°
2026-05-06 19:10 58.16754 12.34467 2783 ft 134 kts 173°
2026-05-06 19:10 58.15812 12.34778 2723 ft 138 kts 173°
2026-05-06 19:10 58.14872 12.35074 2768 ft 136 kts 173°
2026-05-06 19:10 58.13936 12.35329 2750 ft 137 kts 175°
2026-05-06 19:11 58.13003 12.35581 2720 ft 138 kts 173°
2026-05-06 19:11 58.12059 12.36012 2710 ft 139 kts 165°
2026-05-06 19:11 58.11151 12.36671 2617 ft 145 kts 156°
2026-05-06 19:11 58.10219 12.37469 2563 ft 146 kts 159°
2026-05-06 19:12 58.09247 12.38079 2474 ft 151 kts 164°
2026-05-06 19:12 58.08248 12.38626 2480 ft 146 kts 163°
2026-05-06 19:12 58.07288 12.39180 2459 ft 145 kts 163°
2026-05-06 19:12 58.06320 12.39663 2464 ft 143 kts 168°
2026-05-06 19:13 58.05335 12.40006 2430 ft 145 kts 172°
2026-05-06 19:13 58.04339 12.40351 2430 ft 147 kts 168°
2026-05-06 19:13 58.03330 12.40766 2414 ft 149 kts 168°
2026-05-06 19:13 58.02303 12.41181 2546 ft 154 kts 168°
2026-05-06 19:14 58.01199 12.41662 2683 ft 168 kts 167°
2026-05-06 19:14 58.00087 12.42135 3025 ft 166 kts 168°
2026-05-06 19:14 57.98877 12.42549 3125 ft 173 kts 171°
2026-05-06 19:14 57.97675 12.42886 3023 ft 178 kts 173°
2026-05-06 19:15 57.96429 12.43120 2953 ft 179 kts 176°
2026-05-06 19:15 57.95197 12.43231 2901 ft 181 kts 179°
2026-05-06 19:15 57.93964 12.43247 2931 ft 176 kts 179°
2026-05-06 19:15 57.92725 12.43326 2847 ft 181 kts 177°
2026-05-06 19:16 57.91479 12.43537 2909 ft 178 kts 173°
2026-05-06 19:16 57.90243 12.43742 2985 ft 177 kts 178°
2026-05-06 19:16 57.89032 12.43799 3153 ft 173 kts 180°
2026-05-06 19:16 57.87818 12.43816 3232 ft 175 kts 180°
2026-05-06 19:17 57.86584 12.43782 3228 ft 178 kts 183°
2026-05-06 19:17 57.85377 12.43688 3304 ft 172 kts 186°
2026-05-06 19:17 57.84189 12.43512 3307 ft 171 kts 187°
2026-05-06 19:17 57.83024 12.43166 3341 ft 169 kts 193°
2026-05-06 19:18 57.81911 12.42517 3319 ft 168 kts 203°
2026-05-06 19:18 57.80849 12.41618 3219 ft 169 kts 211°
2026-05-06 19:18 57.79805 12.40550 3039 ft 172 kts 209°
2026-05-06 19:18 57.78731 12.39522 2819 ft 171 kts 208°
2026-05-06 19:19 57.77661 12.38561 2469 ft 170 kts 207°
2026-05-06 19:19 57.76651 12.37664 2190 ft 149 kts 210°
2026-05-06 19:19 57.75786 12.36832 1991 ft 134 kts 209°
2026-05-06 19:19 57.74961 12.36061 1779 ft 127 kts 208°
2026-05-06 19:20 57.74202 12.35410 1640 ft 115 kts 208°
2026-05-06 19:20 57.73458 12.34714 1426 ft 124 kts 211°
2026-05-06 19:20 57.72679 12.33979 1261 ft 127 kts 209°
2026-05-06 19:20 57.71903 12.33259 1203 ft 123 kts 209°
2026-05-06 19:21 57.71139 12.32494 1138 ft 124 kts 210°
2026-05-06 19:21 57.70372 12.31741 1078 ft 125 kts 208°
2026-05-06 19:21 57.69595 12.31042 998 ft 123 kts 208°
2026-05-06 19:21 57.68830 12.30344 838 ft 121 kts 209°
2026-05-06 19:22 57.68088 12.29647 671 ft 118 kts 208°
2026-05-06 19:22 57.67387 12.29004 525 ft 106 kts 208°
2026-05-06 19:22 57.66828 12.28487 507 ft 72 kts 206°
2026-05-06 19:22 57.66494 12.28165 506 ft 37 kts 209°
2026-05-06 19:23 57.66301 12.27999 504 ft 27 kts 206°
2026-05-06 19:23 57.66154 12.27949 502 ft 19 kts 142°
2026-05-06 19:23 57.66104 12.28130 503 ft 9 kts 79°
2026-05-06 19:23 57.66164 12.28214 504 ft 14 kts 25°
2026-05-06 19:24 57.66281 12.28314 505 ft 22 kts 22°
2026-05-06 19:24 57.66415 12.28439 506 ft 14 kts 26°
2026-05-06 19:24 57.66503 12.28521 506 ft 19 kts 24°
2026-05-06 19:24 57.66646 12.28654 506 ft 27 kts 26°
2026-05-06 19:25 57.66794 12.28788 507 ft 14 kts 24°
2026-05-06 19:25 57.66817 12.28937 510 ft 14 kts 118°
2026-05-06 19:25 57.66775 12.29096 510 ft 9 kts 117°
2026-05-06 19:25 57.66785 12.29174 510 ft 6 kts 26°
2026-05-06 19:26 57.66835 12.29207 510 ft 11 kts 323°
2026-05-06 19:26 57.66828 12.29112 510 ft 2 kts 252°